Other Surface Observations
Issued by NWS

Home | Current Version | Previous Version | Text Only | Print | Product List | Glossary On
Versions: 1 2 3 4 5 6 7 8 9 10 11 12 13 14 15 16 17 18 19 20 21 22 23 24 25 26 27 28 29 30 31 32 33 34 35 36 37 38 39 40 41 42 43 44 45 46 47 48 49 50
000
SXUS52 KTAE 070618
OSOTAE
OSOTAE
North Florida/South Alabama/Southwest Georgia Weather Roundup
National Weather Service Tallahassee Florida
200 AM EDT THU MAY 07 2015

Note: "fair" indicates few or no clouds below 12,000 feet with no
significant weather and/or obstructions to visibility.

!FLZ017-115-028-034-025-070700
...North Florida...

CITY           SKY/WX    TMP DP  RH WIND       PRES   REMARKS
TALLAHASSEE    PTCLDY    67  59  75 CALM      30.08
APALACHICOLA   PTCLDY    71  67  87 E7        30.06F
PERRY          CLEAR     65  63  93 CALM      30.08F
CROSS CITY       N/A     65  62  90 CALM      30.06F
JACKSONVILLE   CLEAR     61  60  97 CALM      30.05F
$$

!FLZ112-006-005-002-011-070700
...Florida Panhandle...

CITY           SKY/WX    TMP DP  RH WIND       PRES   REMARKS
MARIANNA       LGT RAIN  66  63  90 CALM      30.07S
BONIFAY        NOT AVBL
PANAMA CITY NW FAIR      63  61  93 CALM      30.05F
TYNDALL AFB    CLEAR     68  66  94 NE3       30.06F
TYND DRONE APT FAIR      67  67  97 N5        30.06S
DE FUNIAK SPR  FAIR      64  62  95 CALM      30.08S
EGLIN AFB      CLEAR     65  61  88 N1        30.05F
DESTIN         CLEAR     69  68  96 CALM      30.06F FOG
HURLBURT       CLEAR     65  61  89 CALM      30.05S
CRESTVIEW      CLEAR     61  59  93 CALM      30.08S
PENSACOLA      CLEAR     66  64  93 N3        30.06S
$$

!ALZ063-066-070700
...South Alabama...

CITY           SKY/WX    TMP DP  RH WIND       PRES   REMARKS
DOTHAN         CLEAR     63  57  81 E6        30.11S
OZARK CAIRNS   CLEAR     62  59  88 SW2       30.07S
FT RUCKER HELI CLEAR     61  59  93 CALM      30.07S
RUCKER HELI 3  FAIR      62  61  97 N2        30.09S
RUCKER HELI 2  FAIR      63  61  93 CALM      30.07S
FLORALA APT    CLEAR     62  59  90 CALM      30.09
ANDALUSIA      CLEAR     66  60  81 CALM      30.08S
TROY           CLEAR     60  58  92 CALM      30.10R
EUFALA         FAIR      57  55  93 CALM      30.08F
MOBILE         CLEAR     62  61  96 CALM      30.07S
$$

!GAZ120>161-070700
...Southwest and South Central Georgia...

CITY           SKY/WX    TMP DP  RH WIND       PRES   REMARKS
THOMASVILLE    FAIR      61  61 100 CALM      30.10S
BAINBRIDGE     CLEAR     66  61  82 CALM      30.08F
MOODY AFB      CLEAR     62  59  91 CALM      30.07F
VALDOSTA       CLEAR     60  58  92 CALM      30.08F
MOULTRIE       CLEAR     63  61  94 CALM      30.09F
BLAKELY        CLEAR     61  61 100 CALM      30.09S
ALBANY         CLEAR     60  54  80 CALM      30.11S
TIFTON         FAIR      61  59  92 CALM      30.08F
FITZGERALD     FAIR      61  58  91 CALM      30.11F
CORDELE        FAIR      59  56  88 CALM      30.10F
AMERICUS       FAIR      57  55  94 CALM      30.11F
HOMERVILLE     FAIR      63  61  94 CALM      30.08F
$$

!GMZ750-755-770-775-070700
...Coastal and Buoy Obs...

STATION/POSITION TIME  TEMP    WIND        PRES    VSBY  WAVE
                       AIR SEA DIR/SP/G                  HT/PER
                 (UTC) (F)     (DEG/KT/KT) (MB)    (MI)  (FT/S)
KEATON BEACH     0600   66      50/  2/  3 1018.1F
CEDAR KEY        0600   71      80/  8/  9 1018.1F
C TOWER          0600   73      20/ 10/ 11 1017.7F
APALACHICOLA BUO 0550   74 76   20/  8/ 10 1017.7F         1/ 7
PANAMA CITY BUOY 0550   73 76   40/  2/  2 1017.9F         2/ 5
MOBILE BUOY      0550   74 75  140/ 12/ 14 1017.7R         3/ 7
ORANGE BCH AL BU 0550   74 75  130/  4/  6 1017.2R         2/ 6
$$



USA.gov is the U.S. government's official web portal to all federal, state and local government web resources and services.